NO-84 (40654 NORAD) Tracking and Keplerian Element Data

This shows tracking and keplerian element data for the satellite.

Feedback or suggestion? Click here.




ElementValue
Catalog40654
NameNO-84
Epoch Orbit3684
Epoch Day356.53573001
Epoch Year2021
RAAN216.0649
Inclination54.9254
Eccentricity0.0005658
Argument of Perigee277.1906
Mean Anonmoly89.9756
Mean Motion16.43661753
Decay Rate0.07572654
L11 40654U 15025D 21356.53573001 .07572654 12207-4 29631-3 0 3027
L22 40654 54.9254 216.0649 0005658 277.1906 89.9756 16.43661753 36841



Live tracking and technical data element details for NO-84 (NORAD 40654). NO-84 can be tracked NOW for your location showing map with azimuth and elevation plus other details from your city location.







IsCatalogInMostPopularTable: catalog: 40654, numindb: 577
Update: records affected: 1



GetName: 40654 NO-84

Hit Count: updated at: Thu, 23 Jan 2025 17:42:00 GMT